Satellite-Ground Cal/Val Region Overpasses Predictions

Prediction of Satellite NPP Overpassing Cal/Val Region: PacNW

Region Location: (Latitude: 10.00, Longitude: 139.50) to (Latitude: 22.70, Longitude: 165.60).

Table of predicted overpasses for the next 14.0 days since TLE Epoch: 9/19/2020
Interval Starting Time Starting Location Ending Time Ending Location
1 09/19/2020 15:49:27 ( 22.66, 147.62) 09/19/2020 15:53:02 ( 10.04, 144.61)
2 09/20/2020 02:58:32 ( 10.02, 155.14) 09/20/2020 03:02:08 ( 22.70, 152.12)
3 09/20/2020 15:30:26 ( 22.65, 152.38) 09/20/2020 15:34:01 ( 10.03, 149.37)
4 09/21/2020 02:39:31 ( 10.02, 159.90) 09/21/2020 02:43:06 ( 22.65, 156.89)
5 09/21/2020 15:11:24 ( 22.65, 157.13) 09/21/2020 15:14:59 ( 10.03, 154.13)
6 09/22/2020 02:20:29 ( 10.03, 164.65) 09/22/2020 02:24:04 ( 22.65, 161.65)
7 09/22/2020 14:52:22 ( 22.70, 161.90) 09/22/2020 14:55:58 ( 10.02, 158.88)
8 09/23/2020 03:42:58 ( 10.04, 144.03) 09/23/2020 03:46:33 ( 22.67, 141.03)
9 09/23/2020 14:34:35 ( 18.35, 165.59) 09/23/2020 14:36:57 ( 10.01, 163.64)
10 09/23/2020 16:14:50 ( 22.68, 141.28) 09/23/2020 16:16:55 ( 15.35, 139.50)
11 09/24/2020 03:23:56 ( 10.05, 148.79) 09/24/2020 03:27:31 ( 22.67, 145.78)
12 09/24/2020 15:55:49 ( 22.68, 146.04) 09/24/2020 15:59:24 ( 10.06, 143.03)
13 09/25/2020 03:04:54 ( 10.00, 153.56) 09/25/2020 03:08:30 ( 22.68, 150.54)
14 09/25/2020 15:36:48 ( 22.67, 150.79) 09/25/2020 15:40:23 ( 10.05, 147.79)
15 09/26/2020 02:45:52 ( 10.01, 158.32) 09/26/2020 02:49:28 ( 22.69, 155.30)
16 09/26/2020 15:17:46 ( 22.66, 155.55) 09/26/2020 15:21:21 ( 10.04, 152.55)
17 09/27/2020 02:26:51 ( 10.02, 163.07) 09/27/2020 02:30:26 ( 22.64, 160.07)
18 09/27/2020 14:58:45 ( 22.65, 160.31) 09/27/2020 15:02:20 ( 10.03, 157.30)
19 09/28/2020 02:10:31 ( 19.54, 165.59) 09/28/2020 02:11:24 ( 22.65, 164.82)
20 09/28/2020 03:49:19 ( 10.03, 142.45) 09/28/2020 03:52:50 ( 22.42, 139.51)
21 09/28/2020 14:39:43 ( 22.64, 165.06) 09/28/2020 14:43:18 ( 10.02, 162.06)
22 09/28/2020 16:21:12 ( 22.70, 139.70) 09/28/2020 16:21:25 ( 21.93, 139.51)
23 09/29/2020 03:30:18 ( 10.04, 147.21) 09/29/2020 03:33:53 ( 22.67, 144.20)
24 09/29/2020 16:02:11 ( 22.69, 144.46) 09/29/2020 16:05:47 ( 10.01, 141.44)
25 09/30/2020 03:11:16 ( 10.06, 151.96) 09/30/2020 03:14:51 ( 22.68, 148.96)
26 09/30/2020 15:43:09 ( 22.68, 149.21) 09/30/2020 15:46:45 ( 10.00, 146.19)
27 10/01/2020 02:52:14 ( 10.01, 156.73) 10/01/2020 02:55:50 ( 22.69, 153.71)
28 10/01/2020 15:24:08 ( 22.67, 153.97) 10/01/2020 15:27:43 ( 10.05, 150.96)
29 10/02/2020 02:33:13 ( 10.02, 161.49) 10/02/2020 02:36:49 ( 22.70, 158.47)
30 10/02/2020 15:05:06 ( 22.66, 158.72) 10/02/2020 15:08:41 ( 10.04, 155.72)
31 10/03/2020 02:14:59 ( 12.85, 165.59) 10/03/2020 02:17:46 ( 22.65, 163.24)
